Regional Weather Roundup
Issued by NWS Upton, NY

Home | Current Version | Previous Version | Text Only | Print | Product List | Glossary On
Versions: 1 2 3 4 5 6 7 8 9 10 11 12 13 14 15 16 17 18 19 20 21 22 23 24 25 26 27
000
ASUS41 KOKX 222108
RWROKX

REGIONAL WEATHER ROUNDUP
NATIONAL WEATHER SERVICE NEW YORK NY
400 PM EST SUN JAN 22 2017

NOTE: "FAIR" INDICATES FEW OR NO CLOUDS BELOW 12,000 FEET WITH NO
SIGNIFICANT WEATHER AND/OR OBSTRUCTIONS TO VISIBILITY.

NYZ071-072-176-178-NJZ106-104-222200-
NEW YORK CITY METRO AREA

CITY           SKY/WX    TMP DP  RH WIND       PRES   REMARKS
Central Park   CLOUDY    46  44  93 E8        29.73R FOG
Wall St Helipt CLOUDY    46  44  93 NE12      29.72R
LaGuardia APRT LGT RAIN  45  41  86 NE12      29.71R FOG
Kennedy INTL   LGT RAIN  48  48 100 NE7       29.72R FOG
Breezy Point     N/A     45 N/A N/A NE8         N/A
Newark/Liberty LGT RAIN  49  44  83 NE10      29.71R
Teterboro      CLOUDY    51  44  77 NE7       29.71R
$$

NYZ177-179-078>081-222200-
LONG ISLAND NEW YORK

CITY           SKY/WX    TMP DP  RH WIND       PRES   REMARKS
Jones Beach      N/A     45 N/A N/A NE10        N/A
Matinecock PT  NOT AVBL
Farmingdale    CLOUDY    50  44  80 E5        29.71R
MacArthur/ISP  CLOUDY    51  45  79 E8        29.72R
Shirley        CLOUDY    49  44  83 VRB3      29.74R
Westhampton    CLOUDY    49  42  77 VRB7      29.75R
Southampton    NOT AVBL
Bridgehampton  NOT AVBL
East Hampton   CLOUDY    48  41  75 E10G18    29.75R
Montauk          N/A     46  42  86 E9        29.75R
$$

NYZ052-065-067-222200-
HUDSON VALLEY

CITY           SKY/WX    TMP DP  RH WIND       PRES   REMARKS
White Plains   CLOUDY    50  42  74 E12G21    29.71R
Newburgh       CLOUDY    50  46  87 CALM      29.71S
Montgomery     CLOUDY    50  45  83 CALM      29.70R
Poughkeepsie   CLOUDY    50  44  80 CALM      29.71R
Albany         CLOUDY    42  37  82 N6        29.77S
$$

NJZ001-105-106-008-010-013-015-019>022-104-222200-
NEW JERSEY

CITY           SKY/WX    TMP DP  RH WIND       PRES   REMARKS
Newark/Liberty LGT RAIN  49  44  83 NE10      29.71R
Teterboro      CLOUDY    51  44  77 NE7       29.71R
Caldwell       CLOUDY    49  45  86 NE3       29.72R FOG
Somerville     CLOUDY    49  46  90 NE7       29.68R FOG
Linden         CLOUDY    49  44  83 CALM      29.71R
Sussex         CLOUDY    48  47  96 NE5       29.71R FOG
Andover          N/A     46  45  96 NE5       29.70R
Trenton        CLOUDY    49  47  93 E8        29.68R FOG
Millville      CLOUDY    49  49 100 NE10      29.63R
Atlantic City  FOG       49  47  93 NE13      29.62F VSB 3/4
Wrightstown    LGT RAIN  47  47  98 NE12      29.64S FOG
Toms River     CLOUDY    46  46 100 NE10      29.68R
Belmar         LGT RAIN  46  45  96 NE12      29.69S FOG
$$

PAZ047>061-062-071-222200-
EASTERN PENNSYLVANIA

CITY           SKY/WX    TMP DP  RH WIND       PRES   REMARKS
Philadelphia   LGT RAIN  49  47  93 NE9       29.68R FOG
Allentown      CLOUDY    50  46  86 E8        29.68R FOG
Scranton       MOCLDY    53  49  86 NE6       29.66R
$$

CTZ002-004>006-009-010-012-RIZ004-006-007-MAZ004-011-015-222200-
SOUTHERN NEW ENGLAND
 IN CT

CITY           SKY/WX    TMP DP  RH WIND       PRES   REMARKS
Bradley INTL   MOCLDY    47  40  76 N10       29.78R
Hartford       CLOUDY    50  41  71 N10       29.76R
Danbury        CLOUDY    52  43  71 E10       29.74R
Wtrbury/Oxford CLOUDY    50  39  66 E9G16     29.73S
Bridgeport     CLOUDY    46  40  79 NE10      29.74R
Meriden        CLOUDY    55  42  61 N12       29.74S
New Haven      CLOUDY    47  41  80 E9        29.73S
Chester        MOCLDY    52  41  66 NE9       29.73S
Groton         CLEAR     52  41  66 NE15      29.73S
Wilimantic     CLOUDY    50  41  71 E10       29.78R

 IN RI

CITY           SKY/WX    TMP DP  RH WIND       PRES   REMARKS
Providence     CLOUDY    47  40  76 NE10      29.81R
Block Island   NOT AVBL
Westerly       CLEAR     52  39  61 NE14G22   29.75S
 IN MA

CITY           SKY/WX    TMP DP  RH WIND       PRES   REMARKS
Boston         LGT RAIN  41  41 100 NE17      29.86R FOG
Worcester      FOG       37  36  96 NE12      29.81R VSB<1/4 WCI  29
Westfield      CLOUDY    44  40  85 N10       29.79S
Provincetown   CLOUDY    44  41  89 NE16      29.84R
Nantucket      CLOUDY    46  41  82 NE17G23   29.79R
$$

ANZ330-335-338-340-345-350-353-355-222200-
COASTAL MARINE OBSERVATIONS


STATION/POSITION TIME  SKY/WX   TEMP    WIND        PRES    VSBY  WAVE
                                AIR SEA DIR/SP/G                  HT/PER
                 (UTC)          (F)     (DEG/KT/KT) (MB)    (MI)  (FT/S)
NY HARB ENTRANCE 1950            44 43   40/ 12/ 14 1004.6          3/14
20 S FIRE ISLAND 1950            45 45   50/ 17/ 19 1004.1          4/13
GREAT SOUTH BAY  NOT AVBL
23 SSW MONTAUK P 1950            45 47   60/ 19/ 21 1006.4          3/11
15 E BARNEGAT LI 2000               47                N/A           4/13
HUDSON CANYON    1950            54 52              1003.1          6/13
KINGS POINT      2030            44 40              1005.8
EXECUTION ROCKS  2045            41      40/  8/ 12   N/A
CENTRAL LI SOUND 2015            43      90/  8/ 10   N/A           1/ 2
EASTERN LI SOUND NOT AVBL
ROBBINS REEF     2030            46      60/ 12/ 13 1006.0
$$


>>>>>>>>>>>>>>>>>>>>>>>>>>>> KEY <<<<<<<<<<<<<<<<<<<<<<<<<<<
>                                                          <
>     SKY/WX - Sky Condition/Present Weather               <
>     TMP    - Temperature in Fahrenheit                   <
>     DP     - Dew Point in Fahrenheit                     <
>     RH     - Relative Humidity in Percent                <
>     WIND   - Direction (from) and Speed in MPH           <
>     PRES   - Mean Sea Level Pressure (inches of Hg)      <
>     WCI    - Wind Chill Index                            <
>     VSB    - VISIBILITY IN MILES                         <
>     HX     - HEAT INDEX                                  <
>     TC     - TEMPERATURE IN CELSIUS                      <
>     VRB    - VARIABLE WIND DIRECTION                     <
>                                                          <
>>>>>>>>>>>>>>>>>>>>>>>>>>>> KEY <<<<<<<<<<<<<<<<<<<<<<<<<<<




USA.gov is the U.S. government's official web portal to all federal, state and local government web resources and services.